TOURFACTS.DK  
Stats and Facts from Tour de France.

Tour de France 2018 starts in 167 days
  Riders   Stages   Teams   Summits   Yearly  


 
Search by year

 2017 - St.21:
 14824 starters.
  5132 different riders.
  635 teams.
  2232 stages.
  454 restdays.
  439589.60 km.
  5653 abandonnees.


Top 3
GC
Christopher Froome86:20:55
Rigoberto Uran86:21:49
Romain Bardet86:23:15
Climb
Warren Barguil169 pt.
Primoz Roglic80 pt.
Thomas De Gendt64 pt.
Sprint
Michael Matthews359 pt.
André Greipel234 pt.
Edvald Boasson Hagen220 pt.
Youth
Simon Yates86:27:09
Louis Meintjes86:29:15
Emanuel Buchmann86:54:16
Facts from Tour de France 1948
  |   Stages.  |   Stage winners.  |   Days in yellow  |   Average speed.  |   Route.  |   Teams.  |   All riders.  |   Rookies.  |   Withdrawls.  |  

  |   GC.  |   Polka  |   Green  |   White  |   Summits. (In tour)  |   Summits. (Points)  |   Miscellaneous.  |  

Stage 11 on 12 - 07 - 1948
         Owning:    Louison Bobet    
Pick a stage:  1 2 3 4 5 6 7 8 9 10 11 12 13 14 15 16 17 18 19 20 21
  MarseilleSan-Remo | Dist: 245.00 km.

Average speed for all riders in stage:  32,858 km./hr.
    Place:Name:Team:Time:Km/h:
ITAGino SciardisINTInternations07:23:53  +  00:00:00=33,117 
ITAUrbain CaffiFRAIle De France-North East07:25:05  +  00:01:12=33,028 
ITAVittorio SeghezziITACadetti Italiens07:25:05  +  00:01:12=33,028 
4 FRAPierre CoganFRAWest07:25:08  +  00:01:15=33,024 
5 BELAndré RosseelBELAiglons Belges07:25:57  +  00:02:04=32,963 
6 FRARaphaël GeminianiFRACenter-South West07:25:57  +  00:02:04=32,963 
7 BELLucien MathysBELAiglons Belges07:25:57  +  00:02:04=32,963 
8 ITAGino BartaliITAItaly07:26:07  +  00:02:14=32,951 
9 ITAAntonio BevilacquaITAItaly07:26:07  +  00:02:14=32,951 
10 BELRené MertensBELBelgium07:26:07  +  00:02:14=32,951 
11 BELStan OckersBELBelgium07:26:07  +  00:02:14=32,951 
12 BELAndré DeclerckBELBelgium07:26:07  +  00:02:14=32,951 
13 BELRaymond ImpanisBELBelgium07:26:07  +  00:02:14=32,951 
14 BELFlorent MathieuBELBelgium07:26:07  +  00:02:14=32,951 
15 BELAlbert RamonBELBelgium07:26:07  +  00:02:14=32,951 
16 BELBriek SchotteBELBelgium07:26:07  +  00:02:14=32,951 
17 BELEdward Van DijckBELBelgium07:26:07  +  00:02:14=32,951 
18 NEDHenk de HoogINTHolland-Luxembourg07:26:07  +  00:02:14=32,951 
19 NEDWim De RuyterINTHolland-Luxembourg07:26:07  +  00:02:14=32,951 
20 NEDJoseph JanssenINTHolland-Luxembourg07:26:07  +  00:02:14=32,951 
21 LUXJean KirchenINTHolland-Luxembourg07:26:07  +  00:02:14=32,951 
22 SUIPierre BrambillaINTInternations07:26:07  +  00:02:14=32,951 
23 ITAFermo CamelliniINTInternations07:26:07  +  00:02:14=32,951 
24 GEREdouard KlabinskiINTInternations07:26:07  +  00:02:14=32,951 
25 BELRoger LambrechtINTInternations07:26:07  +  00:02:14=32,951 
26 ITAPaul NeriINTInternations07:26:07  +  00:02:14=32,951 
27 ITAGiuseppe TaccaINTInternations07:26:07  +  00:02:14=32,951 
28 ITASerifano BiagioniITAItaly07:26:07  +  00:02:14=32,951 
29 ITAGiovanni CorrieriITAItaly07:26:07  +  00:02:14=32,951 
30 ITAGiordano CotturITAItaly07:26:07  +  00:02:14=32,951 
31 ITABruno PasquiniITAItaly07:26:07  +  00:02:14=32,951 
32 ITAPrimo VolpiITAItaly07:26:07  +  00:02:14=32,951 
33 FRALouison BobetFRAFrance07:26:07  +  00:02:14=32,951 
34 FRAJean RobicFRAFrance07:26:07  +  00:02:14=32,951 
35 FRALucien TeisseireFRAFrance07:26:07  +  00:02:14=32,951 
36 FRARené ViettoFRAFrance07:26:07  +  00:02:14=32,951 
37 BELJean EngelsBELAiglons Belges07:26:07  +  00:02:14=32,951 
38 BELMaurice MeersmanBELAiglons Belges07:26:07  +  00:02:14=32,951 
39 BELRik RendersBELAiglons Belges07:26:07  +  00:02:14=32,951 
40 ITAVittorio MagniITACadetti Italiens07:26:07  +  00:02:14=32,951 
41 ITAEnzo CoppiniITACadetti Italiens07:26:07  +  00:02:14=32,951 
42 MEXAttilio LambertiniITACadetti Italiens07:26:07  +  00:02:14=32,951 
43 BELMarcel DupontBELAiglons Belges07:26:07  +  00:02:14=32,951 
44 ITAAldo RonconiITACadetti Italiens07:26:07  +  00:02:14=32,951 
45 FRAGuy LapébieFRACenter-South West07:26:07  +  00:02:14=32,951 
46 ITAAlfred MacorigFRACenter-South West07:26:07  +  00:02:14=32,951 
47 FRADaniel OrtsFRACenter-South West07:26:07  +  00:02:14=32,951 
48 FRAJacques PrasFRACenter-South West07:26:07  +  00:02:14=32,951 
49 FRAGeorges RamouluxFRACenter-South West07:26:07  +  00:02:14=32,951 
50 FRAPierre BaratinFRAIle De France-North East07:26:07  +  00:02:14=32,951 
51 FRAJean De GribaldyFRAIle De France-North East07:26:07  +  00:02:14=32,951 
52 FRAAlphonse De VreeseFRAIle De France-North East07:26:07  +  00:02:14=32,951 
53 FRAFrancois HelaryFRAIle De France-North East07:26:07  +  00:02:14=32,951 
54 FRADaniel ThuayreFRAIle De France-North East07:26:07  +  00:02:14=32,951 
55 FRARobert BonnaventureFRAWest07:26:07  +  00:02:14=32,951 
56 FRARoger ChupinFRAWest07:26:07  +  00:02:14=32,951 
57 FRAAndré BruléFRAParis07:26:07  +  00:02:14=32,951 
58 FRAKléber PiotFRAParis07:26:07  +  00:02:14=32,951 
59 FRARaymond GoussotFRAParis07:26:07  +  00:02:14=32,951 
60 FRAMaurice DiotFRAParis07:26:07  +  00:02:14=32,951 
61 FRABernard GauthierFRASouth-East07:26:07  +  00:02:14=32,951 
62 FRAGeorges MartinFRASouth-East07:26:07  +  00:02:14=32,951 
63 FRARaoul RemyFRASouth-East07:26:07  +  00:02:14=32,951 
64 FRAJean ReyFRASouth-East07:26:07  +  00:02:14=32,951 
65 FRALouis ThiétardFRAParis07:26:35  +  00:02:42=32,917 
66 BELLeon JomauxBELAiglons Belges07:28:07  +  00:04:14=32,804 
67 ITAEgidio FeruglioITAItaly07:29:38  +  00:05:45=32,693 
68 FRAMaurice De MuerFRAIle De France-North East07:29:38  +  00:05:45=32,693 
69 BELVictor JolyINTInternations07:29:38  +  00:05:45=32,693 
70 FRARobert ChapatteFRAParis07:30:10  +  00:06:17=32,655 
71 FRAPierre MolinerisFRASouth-East07:30:10  +  00:06:17=32,655 
72 FRAAmédée RollandFRASouth-East07:30:10  +  00:06:17=32,655 
73 FRAJean-Apotre LazaridesFRAFrance07:37:31  +  00:13:38=32,130 
74 FRAMaurice CarpentierFRAWest07:37:31  +  00:13:38=32,130 
75 FRAPaul GiguetFRAFrance07:37:31  +  00:13:38=32,130 
76 FRAEdouard MullerFRAIle De France-North East07:48:05  +  00:24:12=31,405 
77 FRAJacques MarinelliFRAParis07:48:05  +  00:24:12=31,405 

Withdrawls: 2
 
Rider
Team
Reason
19  LUXWilly KempINTHolland-LuxembourgDid not finish
95  FRAJean-Marie GoasmatFRAWestDid not finish

Todays birthdays.

1886  Giuseppe Santhia
1907  Allegro Grandi
1936  Anton van der Steen
1952  Glauco Santoni
1957  Antonio Ferretti
1963  Silvio Martinello
1967  Alvaro Mejia
1972  Paul Van Hyfte
1984  Aurélien Passeron




Visits: